Current weather by "City, St" or "zip code"  
 
Advertise Here

Current Conditions: Birmingham, Birmingham International Airport, AL

Overcast


59.0 F

Last Updated on Jan 25 2021, 2:53 am CST
Humidity: 90%
Wind Speed: S 6.9 mph
Barometer 29.98 in
Dewpoint: 55.9 F
Visibility: 7.00 mi
Precip: --
Heat Index: NA
Wind Chill: 58 F
Current conditions at:

Birmingham, Birmingham International Airport, AL (KBHM)

Lat: 33.56556 Lon: 86.745

Local Radar Image active severe weather and emergency alerts image image weather storm and storm spotter reports image weather observation monitoring service image
Local
Radar
Active
Alerts
Storm Reports Obs
Monitoring

Sign-up For Email & Text Message Weather Alert Notification Services


Advertise Here

Observation History for Birmingham, Birmingham International Airport, AL


Time Wind
(mph)
Vis
(mi)
Weather Precip (in) Temperature (F) Relative
Humidity
Wind
Chill
(F)
Heat
Index
(F)
Pressure
Air Dwpt altimeter
(in)
sea level
(mb)
Rmks
2:53 am CST S 6.9 7.00 Overcast -- 59.0 55.9 90% 58 NA 29.98 1014.8
1:53 am CST S 8.1 8.00 Overcast -- 58.0 55.9 93% 56 NA 29.99 1015.1
12:53 am CST 5.8 5.00 Fog/Mist Trace 58.0 55.0 90% 57 NA 30.02 1016.1
11:53 pm CST SE 8.1 8.00 Light Rain 00.01 57.0 55.0 93% 55 NA 29.99 1015.3
10:53 pm CST 4.6 4.00 Light Rain Fog/Mist Trace 57.0 55.0 93% 57 NA 30.05 1017.2
9:53 pm CST 3.5 7.00 Light Rain 00.02 58.0 55.0 90% NA NA 30.04 1016.8
8:53 pm CST SE 5.8 6.00 Fog/Mist 00.01 57.0 55.0 93% 56 NA 30.07 1017.9
7:53 pm CST SE 5.8 4.00 Fog/Mist 00.03 57.0 54.0 90% 56 NA 30.07 1018.1
6:53 pm CST S 3.5 2.50 Light Rain Fog/Mist 00.04 57.0 54.0 90% NA NA 30.08 1018.4
5:53 pm CST S 4.6 10.00 Overcast Trace 60.0 51.1 72% 60 NA 30.07 1018.1
4:53 pm CST SE 6.9 10.00 Overcast Trace 61.0 51.1 70% 60 NA 30.08 1018.3
3:53 pm CST S 6.9 10.00 Overcast -- 64.0 48.9 58% NA NA 30.07 1017.9
2:53 pm CST S 5.8 10.00 Overcast -- 64.0 48.0 56% NA NA 30.06 1017.7
1:53 pm CST S 10.4 10.00 Overcast -- 65.0 48.0 54% NA NA 30.08 1018.1
12:53 pm CST S 8.1 10.00 Overcast -- 64.0 45.0 50% NA NA 30.09 1018.6
11:53 am CST S 9.2 10.00 Mostly Cloudy -- 64.0 42.1 45% NA NA 30.13 1020.0
10:53 am CST S 12.7 10.00 Partly Cloudy -- 61.0 37.9 43% 59 NA 30.15 1020.9
9:53 am CST SE 9.2 10.00 Mostly Cloudy -- 57.0 39.9 53% 55 NA 30.18 1021.7
8:53 am CST 3.5 10.00 Mostly Cloudy -- 53.0 39.0 59% NA NA 30.18 1022.0
7:53 am CST E 3.5 10.00 Mostly Cloudy -- 50.0 35.1 57% NA NA 30.18 1021.9
6:53 am CST SE 4.6 10.00 Mostly Cloudy -- 46.0 32.0 58% 44 NA 30.18 1021.8
5:53 am CST NE 4.6 10.00 Partly Cloudy -- 46.0 30.0 54% 44 NA 30.15 1021.0
4:53 am CST NE 3.5 10.00 Fair -- 45.0 28.0 52% NA NA 30.15 1021.0
3:53 am CST N 0.0 10.00 Fair -- 45.0 25.0 46% NA NA 30.16 1021.3

Regional Weather Observation


Jasper Walker County Airport amp; Bevill Field, AL (KJFX)

Fog/Mist
59.0 F

Bessemer Airport, AL (KEKY)

Overcast
58.0 F

Alabaster, Shelby County Airport, AL (KEET)

Overcast
58.0 F

St Clair County Airport, AL (KPLR)

Overcast
55.0 F

Gadsden, Gadsden Municipal Airport, AL (KGAD)

Light Rain Fog/Mist
52.0 F

Folsom Field Airport, AL (K3A1)

Partly Cloudy
82.0 F